Location: Burgberg
(50.1428°N, 11.0671°E)
Time: 21:08:27
(UTC+00:00)

CZ-2C R/B - Pass Details

Date: 26 January 2020
Orbit: 669 x 783 km, 98.1° (Epoch: 27 February)

Event Time Altitude Azimuth Distance (km) Brightness Sun altitude
Rises 04:15:47 0° 10° (N) 3,201 5.9 -25.9°
Reaches altitude 10° 04:18:06 10° 6° (N) 2,289 5.0 -25.5°
Enters shadow 04:21:08 34° 347° (NNW) 1,236 3.4 -25.0°
